Plymouth, NH

12:19 AM EDT on June 24, 2018 (GMT -0400)
Plymouth

Weather History for K1P1 - September, 2016

Change the Weather History Date:

Monday, September 19, 2016

  Actual Average (KLCI) Record (KLCI)
Temperature  
Mean Temperature 65 °F -  
Max Temperature 68 °F 70 °F 85 °F (1992)
Min Temperature 62 °F 49 °F 33 °F (2014)
Growing Degree Days 15 (Base 50)    
Moisture  
Dew Point 64 °F    
Average Humidity 95    
Maximum Humidity 97    
Minimum Humidity 88    
Precipitation  
Precipitation 0.34 in - - ()
Sea Level Pressure  
Sea Level Pressure 30.07 in    
Wind  
Wind Speed 0 mph (ENE)    
Max Wind Speed 4 mph    
Max Gust Speed -    
Visibility 6 miles    
Events Fog , Rain    
Averages and records for this station are not official NWS values.
T = Trace of Precipitation, MM = Missing Value Source: NWS Daily Summary

Daily Weather History Graph

Daily Weather History Graph

Search for Another Location

Airport or City:

Astronomy

Sep. 19, 2016 Rise Set
Actual Time 6:31 AM EDT 6:49 PM EDT
Civil Twilight 6:02 AM EDT 7:17 PM EDT
Nautical Twilight 5:28 AM EDT 7:51 PM EDT
Astronomical Twilight 4:53 AM EDT 8:26 PM EDT
Moon 8:51 PM EDT (9/19) 9:44 AM EDT (9/19)
Length of Visible Light 13h 15m
Length of Day
12h 17m
Waning Gibbous, 88% of the Moon is Illuminated
Sep 19
Waning Gibbous
Sep 23
Last Quarter
Sep 30
New
Oct 9
First Quarter
Oct 16
Full

Hourly Weather History & Observations

Time (EDT) Temp. Dew Point Humidity Pressure Visibility Wind Dir Wind Speed Gust Speed Precip Events Conditions
12:15 AM 62.2 °F 61.3 °F 97% 30.06 in 0.5 mi Calm Calm - N/A Fog Fog
12:35 AM 62.6 °F 61.5 °F 96% 30.05 in 0.5 mi Calm Calm - N/A Fog Fog
12:55 AM 62.6 °F 61.7 °F 97% 30.05 in 1.0 mi Calm Calm - N/A   Overcast
1:15 AM 62.6 °F 61.7 °F 97% 30.05 in 0.8 mi Calm Calm - N/A Rain Light Rain
1:35 AM 62.4 °F 61.3 °F 96% 30.04 in 0.5 mi Calm Calm - N/A Fog Fog
1:55 AM 62.1 °F 61.2 °F 97% 30.04 in 0.5 mi Calm Calm - N/A Fog Fog
2:15 AM 62.2 °F 61.3 °F 97% 30.04 in 0.8 mi Calm Calm - N/A   Overcast
2:35 AM 62.6 °F 61.7 °F 97% 30.04 in 3.0 mi Calm Calm - N/A Rain Light Rain
2:55 AM 62.4 °F 61.5 °F 97% 30.05 in 2.5 mi Calm Calm - 0.03 in Rain Rain
3:15 AM 62.6 °F 61.7 °F 97% 30.05 in 2.5 mi Calm Calm - 0.02 in Rain Rain
3:35 AM 62.8 °F 61.9 °F 97% 30.05 in 2.0 mi Calm Calm - 0.06 in Rain Rain
3:55 AM 62.6 °F 61.7 °F 97% 30.06 in 1.8 mi Calm Calm - 0.11 in Rain Heavy Rain
4:15 AM 62.6 °F 61.7 °F 97% 30.06 in 3.0 mi Calm Calm - 0.03 in Rain Rain
4:35 AM 62.6 °F 61.7 °F 97% 30.05 in 3.0 mi Calm Calm - 0.05 in Rain Rain
4:55 AM 62.6 °F 61.7 °F 97% 30.04 in 3.0 mi Calm Calm - 0.07 in Rain Rain
5:15 AM 62.6 °F 61.7 °F 97% 30.04 in 4.0 mi Calm Calm - 0.01 in Rain Light Rain
5:35 AM 62.6 °F 61.7 °F 97% 30.04 in 3.0 mi Calm Calm - 0.02 in Rain Light Rain
5:55 AM 62.6 °F 61.7 °F 97% 30.05 in 3.0 mi Calm Calm - 0.04 in Rain Rain
6:15 AM 62.6 °F 61.7 °F 97% 30.05 in 2.5 mi Calm Calm - 0.04 in Rain Rain
6:35 AM 62.6 °F 61.7 °F 97% 30.05 in 3.0 mi Calm Calm - 0.06 in Rain Light Rain
6:55 AM 62.6 °F 61.7 °F 97% 30.05 in 3.0 mi ENE 3.5 mph - 0.06 in Rain Light Rain
7:15 AM 62.8 °F 61.9 °F 97% 30.06 in 5.0 mi Calm Calm - 0.01 in   Light Drizzle
7:35 AM 63.0 °F 62.1 °F 97% 30.06 in 4.0 mi Calm Calm - 0.01 in Rain Light Rain
7:55 AM 63.1 °F 62.2 °F 97% 30.06 in 5.0 mi East 3.5 mph - 0.02 in   Light Drizzle
8:15 AM 63.5 °F 62.6 °F 97% 30.06 in 7.0 mi Calm Calm - N/A   Mostly Cloudy
8:35 AM 63.7 °F 62.8 °F 97% 30.06 in 5.0 mi Calm Calm - N/A Rain Light Rain
8:55 AM 63.9 °F 63.0 °F 97% 30.06 in 5.0 mi Calm Calm - 0.01 in Rain Light Rain
9:15 AM 64.4 °F 63.5 °F 97% 30.06 in 5.0 mi Calm Calm - N/A   Overcast
9:35 AM 64.9 °F 64.0 °F 97% 30.07 in 10.0 mi Calm Calm - N/A   Overcast
9:55 AM 64.9 °F 64.0 °F 97% 30.07 in 10.0 mi Calm Calm - N/A   Overcast
10:15 AM 65.3 °F 64.4 °F 97% 30.07 in 10.0 mi Calm Calm - N/A   Overcast
10:35 AM 65.5 °F 64.4 °F 96% 30.07 in 10.0 mi Calm Calm - N/A   Overcast
10:55 AM 65.5 °F 64.4 °F 96% 30.07 in 10.0 mi Calm Calm - N/A   Overcast
11:15 AM 65.5 °F 64.4 °F 96% 30.06 in 10.0 mi Calm Calm - N/A   Overcast
11:35 AM 65.3 °F 64.4 °F 97% 30.07 in 10.0 mi Calm Calm - N/A   Overcast
11:55 AM 65.7 °F 64.4 °F 96% 30.08 in 10.0 mi Calm Calm - N/A   Overcast
12:15 PM 66.2 °F 64.9 °F 96% 30.08 in 7.0 mi Calm Calm - N/A   Overcast
12:35 PM 65.8 °F 64.6 °F 96% 30.07 in 10.0 mi Calm Calm - N/A   Overcast
12:55 PM 66.0 °F 64.4 °F 94% 30.07 in 5.0 mi Calm Calm - N/A   Overcast
1:15 PM 66.2 °F 64.4 °F 94% 30.08 in 10.0 mi Calm Calm - N/A   Overcast
1:35 PM 66.6 °F 64.6 °F 93% 30.08 in 7.0 mi Calm Calm - N/A   Overcast
1:55 PM 67.1 °F 64.6 °F 92% 30.07 in 10.0 mi Calm Calm - N/A   Overcast
2:15 PM 67.1 °F 64.2 °F 90% 30.07 in 5.0 mi Calm Calm - N/A   Overcast
2:35 PM 67.1 °F 64.4 °F 91% 30.07 in 5.0 mi Calm Calm - N/A   Overcast
2:55 PM 67.3 °F 64.9 °F 92% 30.07 in 4.0 mi Calm Calm - N/A   Overcast
3:15 PM 67.3 °F 65.1 °F 93% 30.07 in 10.0 mi Calm Calm - N/A   Overcast
3:35 PM 67.5 °F 64.9 °F 92% 30.06 in 10.0 mi Calm Calm - N/A   Overcast
3:55 PM 68.2 °F 65.3 °F 90% 30.06 in 10.0 mi Calm Calm - N/A   Overcast
4:15 PM 68.9 °F 65.1 °F 88% 30.06 in 10.0 mi Calm Calm - N/A   Overcast
4:35 PM 68.7 °F 65.1 °F 88% 30.06 in 10.0 mi Calm Calm - N/A   Overcast
4:55 PM 68.9 °F 65.3 °F 88% 30.06 in 10.0 mi Calm Calm - N/A   Overcast
5:15 PM 68.9 °F 65.7 °F 89% 30.05 in 10.0 mi Calm Calm - N/A   Overcast
5:35 PM 68.5 °F 65.7 °F 90% 30.06 in 10.0 mi Calm Calm - N/A   Overcast
5:55 PM 68.5 °F 65.8 °F 91% 30.06 in 10.0 mi Calm Calm - N/A   Overcast
6:15 PM 68.2 °F 65.5 °F 91% 30.05 in 10.0 mi Calm Calm - N/A   Overcast
6:35 PM 68.0 °F 65.5 °F 92% 30.05 in 10.0 mi Calm Calm - N/A   Overcast
6:55 PM 67.3 °F 65.3 °F 93% 30.06 in 10.0 mi Calm Calm - N/A   Mostly Cloudy
7:15 PM 66.4 °F 64.6 °F 94% 30.06 in 2.5 mi Calm Calm - N/A   Scattered Clouds
7:35 PM 66.2 °F 64.6 °F 94% 30.07 in 4.0 mi Calm Calm - N/A   Overcast
7:55 PM 66.2 °F 64.8 °F 95% 30.07 in 5.0 mi Calm Calm - N/A   Overcast
8:15 PM 66.4 °F 64.9 °F 95% 30.08 in 5.0 mi Calm Calm - N/A   Overcast
8:35 PM 66.4 °F 64.9 °F 95% 30.08 in 7.0 mi Calm Calm - N/A   Overcast
8:55 PM 66.2 °F 64.8 °F 95% 30.09 in 5.0 mi Calm Calm - N/A   Overcast
9:15 PM 66.2 °F 64.6 °F 94% 30.09 in 5.0 mi Calm Calm - N/A   Overcast
9:35 PM 65.8 °F 64.6 °F 96% 30.10 in 4.0 mi Calm Calm - N/A   Overcast
9:55 PM 65.8 °F 64.6 °F 96% 30.10 in 5.0 mi Calm Calm - N/A   Light Drizzle
10:15 PM 65.5 °F 64.4 °F 96% 30.10 in 4.0 mi Calm Calm - N/A   Overcast
10:35 PM 65.5 °F 64.4 °F 96% 30.10 in 2.5 mi Calm Calm - N/A   Overcast
10:55 PM 65.3 °F 64.4 °F 97% 30.11 in 3.0 mi Calm Calm - N/A   Overcast
11:15 PM 65.3 °F 64.4 °F 97% 30.11 in 3.0 mi Calm Calm - N/A   Overcast
11:35 PM 65.3 °F 64.4 °F 97% 30.10 in 3.0 mi Calm Calm - N/A   Overcast
11:55 PM 65.3 °F 64.0 °F 96% 30.10 in 1.2 mi Calm Calm - N/A   Overcast